Philip, SD

12:53 PM MST on February 14, 2016 (GMT -0700)
Philip

Weather History for KPHP - July, 2013

Change the Weather History Date:

Friday, July 12, 2013

  Actual Average Record
Temperature  
Mean Temperature 85 °F 74 °F  
Max Temperature 97 °F 89 °F 109 °F (1954)
Min Temperature 73 °F 60 °F 45 °F (1950)
Degree Days  
Heating Degree Days 0 0  
Month to date heating degree days 0 3  
Since 1 June heating degree days 64 66  
Since 1 July heating degree days 0 3  
Cooling Degree Days 20 10  
Month to date cooling degree days 131 101  
Year to date cooling degree days 279 251  
Since 1 June cooling degree days 258 224  
Growing Degree Days 38 (Base 50)    
Moisture  
Dew Point 57 °F    
Average Humidity 40    
Maximum Humidity 58    
Minimum Humidity 22    
Precipitation  
Precipitation 0.00 in 0.08 in 1.46 in (1962)
Month to date precipitation 0.19 0.95  
Year to date precipitation 7.65 10.80  
Sea Level Pressure  
Sea Level Pressure 29.71 in    
Wind  
Wind Speed 12 mph (NNE)    
Max Wind Speed 32 mph    
Max Gust Speed 41 mph    
Visibility 10 miles    
Events      
T = Trace of Precipitation, MM = Missing Value Source: NWS Daily Summary

Daily Weather History Graph

Daily Weather History Graph

Search for Another Location

Airport or City:

Trip Planner

Search our weather history database for the weather conditions in past years. The results will help you decide how hot, cold, wet, or windy it might be!

Date:

Astronomy

Jul. 12, 2013 Rise Set
Actual Time 5:15 AM MDT 8:28 PM MDT
Civil Twilight 4:39 AM MDT 9:03 PM MDT
Nautical Twilight 3:54 AM MDT 9:49 PM MDT
Astronomical Twilight 2:58 AM MDT 10:44 PM MDT
Moon 9:44 AM MDT (7/12) 10:28 PM MDT (7/12)
Length of Visible Light 16h 24m
Length of Day
15h 13m
Waxing Crescent, 18% of the Moon is Illuminated
Jul 12
Waxing Crescent
Jul 15
First Quarter
Jul 22
Full
Jul 29
Last Quarter
Aug 6
New

Hourly Weather History & Observations

Time (MDT) Temp. Heat Index Dew Point Humidity Pressure Visibility Wind Dir Wind Speed Gust Speed Precip Events Conditions
12:55 AM 81.0 °F 81.9 °F 62.1 °F 52% 29.65 in 10.0 mi South 17.3 mph - N/A   Clear
1:55 AM 80.1 °F 81.7 °F 64.0 °F 58% 29.64 in 10.0 mi South 13.8 mph 24.2 mph N/A   Clear
2:55 AM 78.1 °F - 63.0 °F 60% 29.63 in 10.0 mi South 8.1 mph - N/A   Clear
3:55 AM 80.1 °F 81.5 °F 63.0 °F 56% 29.59 in 10.0 mi South 19.6 mph 26.5 mph N/A   Clear
4:55 AM 80.1 °F 81.5 °F 63.0 °F 56% 29.60 in 10.0 mi South 4.6 mph - N/A   Clear
5:55 AM 79.0 °F - 63.0 °F 58% 29.62 in 10.0 mi Variable 4.6 mph - N/A   Clear
6:55 AM 79.0 °F - 63.0 °F 58% 29.64 in 10.0 mi Calm Calm - N/A   Clear
7:55 AM 82.0 °F 82.0 °F 57.9 °F 44% 29.65 in 10.0 mi WNW 16.1 mph - N/A   Clear
8:55 AM 84.9 °F 84.8 °F 60.1 °F 43% 29.67 in 10.0 mi NW 21.9 mph 28.8 mph N/A   Clear
9:55 AM 89.1 °F 89.0 °F 61.0 °F 39% 29.68 in 10.0 mi NNW 28.8 mph 38.0 mph N/A   Clear
10:55 AM 88.0 °F 85.9 °F 54.0 °F 31% 29.70 in 10.0 mi NNW 24.2 mph 41.4 mph N/A   Clear
11:55 AM 91.0 °F 88.5 °F 53.1 °F 27% 29.72 in 10.0 mi NNW 26.5 mph 35.7 mph N/A   Clear
12:55 PM 93.9 °F - 52.0 °F 24% 29.73 in 10.0 mi North 23.0 mph 32.2 mph N/A   Clear
1:55 PM 93.9 °F - 51.1 °F 23% 29.74 in 10.0 mi North 23.0 mph 31.1 mph N/A   Clear
2:55 PM 97.0 °F - 52.0 °F 22% 29.75 in 10.0 mi North 10.4 mph 23.0 mph N/A   Clear
3:55 PM 96.1 °F - 52.0 °F 22% 29.74 in 10.0 mi North 13.8 mph 20.7 mph N/A   Clear
4:55 PM 96.1 °F - 52.0 °F 22% 29.75 in 10.0 mi North 15.0 mph 20.7 mph N/A   Clear
5:55 PM 95.0 °F - 52.0 °F 23% 29.76 in 10.0 mi North 8.1 mph - N/A   Clear
6:55 PM 91.9 °F 89.5 °F 54.0 °F 27% 29.77 in 10.0 mi ENE 10.4 mph - N/A   Clear
7:55 PM 88.0 °F 85.9 °F 54.0 °F 31% 29.79 in 10.0 mi East 10.4 mph - N/A   Clear
8:55 PM 82.9 °F 82.0 °F 55.0 °F 38% 29.81 in 10.0 mi East 5.8 mph - N/A   Clear
9:55 PM 81.0 °F 80.8 °F 55.9 °F 42% 29.83 in 10.0 mi East 4.6 mph - N/A   Clear
10:55 PM 78.1 °F - 55.9 °F 46% 29.84 in 10.0 mi Calm Calm - N/A   Clear
11:55 PM 75.0 °F - 57.0 °F 53% 29.85 in 10.0 mi ENE 5.8 mph - N/A   Clear